Weather History for New River MCAS, NC

Change the Weather History Date:

Friday, October 5, 2012

  Actual Average Record
Temperature  
Mean Temperature 73 °F -  
Max Temperature 82 °F 75 °F 90 °F (2002)
Min Temperature 63 °F 56 °F 46 °F (1996)
Cooling Degree Days 8    
Growing Degree Days 23 (Base 50)    
Moisture  
Dew Point 61 °F    
Average Humidity 73    
Maximum Humidity 93    
Minimum Humidity 36    
Precipitation  
Precipitation 0.00 in - - ()
Sea Level Pressure  
Sea Level Pressure 30.11 in    
Wind  
Wind Speed 3 mph (NW)    
Max Wind Speed 6 mph    
Max Gust Speed -    
Visibility 10 miles    
Events      
Averages and records for this station are not official NWS values.
T = Trace of Precipitation, MM = Missing Value Source: NWS Daily Summary

Daily Weather History Graph

Daily Weather History Graph

Search for Another Location

Airport:

Trip Planner

Search our weather history database for the weather conditions in past years. The results will help you decide how hot, cold, wet, or windy it might be!

Date:

Astronomy

Oct. 05, 2012 Rise Set
Actual Time 7:07 AM EDT 6:47 PM EDT
Civil Twilight 6:42 AM EDT 7:12 PM EDT
Nautical Twilight 6:13 AM EDT 7:41 PM EDT
Astronomical Twilight 5:44 AM EDT 8:11 PM EDT
Moon 10:20 PM EDT (10/5) 12:02 PM EDT (10/5)
Length of Visible Light 12h 30m
Length of Day
11h 39m
Waning Gibbous, 74% of the Moon is Illuminated
Oct 5
Waning Gibbous
Oct 8
Last Quarter
Oct 15
New
Oct 21
First Quarter
Oct 29
Full

Hourly Weather History & Observations

Time (EDT) Temp. Heat Index Dew Point Humidity Pressure Visibility Wind Dir Wind Speed Gust Speed Precip Events Conditions
12:56 AM 68.0 °F - 64.9 °F 90% 30.17 in 10.0 mi West 4.6 mph - N/A   Clear
1:56 AM 68.0 °F - 64.9 °F 90% 30.17 in 10.0 mi WNW 4.6 mph - N/A   Clear
2:56 AM 66.9 °F - 64.0 °F 90% 30.15 in 10.0 mi NW 4.6 mph - N/A   Clear
3:56 AM 66.0 °F - 64.0 °F 93% 30.15 in 10.0 mi Calm Calm - N/A   Clear
4:56 AM 66.0 °F - 63.0 °F 90% 30.15 in 10.0 mi WNW 3.5 mph - N/A   Clear
5:56 AM 66.0 °F - 63.0 °F 90% 30.16 in 10.0 mi WNW 4.6 mph - N/A   Clear
6:56 AM 64.9 °F - 62.1 °F 90% 30.16 in 8.0 mi NW 3.5 mph - N/A   Clear
7:56 AM 66.9 °F - 63.0 °F 87% 30.16 in 7.0 mi NW 5.8 mph - N/A   Mostly Cloudy
8:56 AM 70.0 °F - 62.1 °F 76% 30.16 in 10.0 mi North 4.6 mph - N/A   Mostly Cloudy
9:56 AM 73.9 °F - 61.0 °F 64% 30.17 in 10.0 mi NNE 3.5 mph - N/A   Clear
10:56 AM 75.9 °F - 61.0 °F 60% 30.15 in 10.0 mi North 4.6 mph - N/A   Mostly Cloudy
11:56 AM 79.0 °F - 60.1 °F 52% 30.14 in 10.0 mi Variable 3.5 mph - N/A   Mostly Cloudy
12:56 PM 81.0 °F 81.0 °F 57.0 °F 44% 30.12 in 10.0 mi NNW 4.6 mph - N/A   Clear
1:56 PM 82.0 °F 81.7 °F 57.0 °F 42% 30.11 in 10.0 mi Variable 3.5 mph - N/A   Clear
2:56 PM 82.9 °F 81.8 °F 53.1 °F 36% 30.09 in 10.0 mi NE 3.5 mph - N/A   Clear
3:56 PM 82.0 °F 81.3 °F 54.0 °F 38% 30.08 in 10.0 mi NW 4.6 mph - N/A   Clear
4:56 PM 80.1 °F 80.0 °F 54.0 °F 40% 30.06 in 10.0 mi West 4.6 mph - N/A   Clear
5:56 PM 77.0 °F - 60.1 °F 56% 30.05 in 10.0 mi Calm Calm - N/A   Clear
6:56 PM 72.0 °F - 64.0 °F 76% 30.05 in 10.0 mi Calm Calm - N/A   Clear
7:56 PM 68.0 °F - 64.0 °F 87% 30.06 in 10.0 mi Calm Calm - N/A   Clear
8:56 PM 66.0 °F - 63.0 °F 90% 30.06 in 10.0 mi Calm Calm - N/A   Clear
9:56 PM 64.9 °F - 62.1 °F 90% 30.06 in 10.0 mi Calm Calm - N/A   Clear
10:56 PM 64.0 °F - 61.0 °F 90% 30.06 in 10.0 mi Calm Calm - N/A   Clear
11:56 PM 63.0 °F - 61.0 °F 93% 30.05 in 8.0 mi Calm Calm - N/A   Clear